Date String (YYYY-MM-DD hh:mm:ss) UTC,Instrument flags,absolute air pressure of the measurement (hPa),sample flow rate (lpm),inlet stack bypass flow (lpm),air temperature of the measurement (°C),ambient temperature measured by the external sensor (°C),aerosol sample conditioner tube jacket temperature (°C),OPC LED temperature (°C),internal box temperature (°C),relative humidity of the measurement (%),span deviation,mass concentration of particles derived from Lorenz-Mie calculation of OPC scattering (μg/m³),mass concentration of particles derived from Lorenz-Mie calculation of OPC scattering (μg/m³),mass concentration of particles derived from Lorenz-Mie calculation of OPC scattering (μg/m³)
DateTimeUTC,F1_M11,P_M11,Q1_M11,Q2_M11,T1_M11,T2_M11,T3_M11,T4_M11,T5_M11,U1_M11,ZSPAN_M11,X0_M11,X2_M11,X1_M11
2024-03-24 02:00:00,SystemResetWarning,0814.9,5.01,000.00,025.6,024.7,000.0,034.2,027.4,13.3,0000.0,0007.67,0003.13,0001.99
2024-03-24 02:01:00,SystemResetWarning,0814.9,5.01,000.00,025.6,024.7,000.0,034.2,027.5,13.3,0000.0,0007.48,0003.18,0002.02
2024-03-24 02:02:00,SystemResetWarning,0814.9,5.01,000.00,025.6,024.7,000.0,034.2,027.4,13.3,0000.0,0007.96,0003.19,0002.03
2024-03-24 02:03:00,SystemResetWarning,0814.9,5.00,000.00,025.6,024.7,000.0,034.2,027.4,13.3,0000.0,0008.14,0003.20,0002.03
2024-03-24 02:04:00,SystemResetWarning,0814.9,4.99,000.00,025.6,024.7,000.0,034.2,027.4,13.3,0000.0,0008.17,0003.19,0002.01
2024-03-24 02:05:00,SystemResetWarning,0814.8,5.00,000.00,025.6,024.7,000.0,034.2,027.4,13.3,0000.0,0008.22,0003.20,0001.99
2024-03-24 02:06:00,SystemResetWarning,0814.9,5.01,000.00,025.6,024.7,000.0,034.2,027.4,13.2,0000.0,0008.24,0003.15,0001.96
2024-03-24 02:07:00,SystemResetWarning,0814.9,5.00,000.00,025.6,024.7,000.0,034.2,027.4,13.2,0000.0,0008.11,0003.11,0001.95
2024-03-24 02:08:00,SystemResetWarning,0814.9,5.01,000.00,025.6,024.7,000.0,034.2,027.4,13.1,0000.0,0007.72,0003.07,0001.93
2024-03-24 02:09:00,SystemResetWarning,0814.9,5.00,000.00,025.6,024.6,000.0,034.2,027.4,13.0,0000.0,0007.60,0003.01,0001.90
2024-03-24 02:10:00,SystemResetWarning,0814.9,5.00,000.00,025.6,024.6,000.0,034.2,027.4,12.9,0000.0,0007.65,0003.05,0001.87
2024-03-24 02:11:00,SystemResetWarning,0814.9,4.99,000.00,025.6,024.6,000.0,034.2,027.4,12.7,0000.0,0007.65,0003.01,0001.83
2024-03-24 02:12:00,SystemResetWarning,0814.9,5.00,000.00,025.6,024.6,000.0,034.2,027.4,12.7,0000.0,0007.67,0003.00,0001.81
2024-03-24 02:13:00,SystemResetWarning,0814.9,4.99,000.00,025.5,024.6,000.0,034.2,027.4,12.6,0000.0,0007.26,0002.99,0001.79
2024-03-24 02:14:00,SystemResetWarning,0814.9,5.00,000.00,025.5,024.6,000.0,034.1,027.4,12.6,0000.0,0006.12,0003.00,0001.77
2024-03-24 02:15:00,SystemResetWarning,0814.9,5.01,000.00,025.5,024.6,000.0,034.1,027.4,12.7,0000.0,0006.61,0003.01,0001.74
2024-03-24 02:16:00,SystemResetWarning,0814.9,5.00,000.00,025.5,024.6,000.0,034.1,027.4,12.6,0000.0,0006.43,0002.98,0001.74
2024-03-24 02:17:00,SystemResetWarning,0814.9,5.00,000.00,025.5,024.6,000.0,034.1,027.3,12.7,0000.0,0006.14,0002.98,0001.71
2024-03-24 02:18:00,SystemResetWarning,0814.9,5.00,000.00,025.5,024.6,000.0,034.1,027.3,12.6,0000.0,0006.05,0002.94,0001.68
2024-03-24 02:19:00,SystemResetWarning,0814.9,5.00,000.00,025.5,024.6,000.0,034.1,027.3,12.5,0000.0,0006.00,0002.94,0001.66
2024-03-24 02:20:00,SystemResetWarning,0814.9,5.00,000.00,025.5,024.6,000.0,034.1,027.3,12.5,0000.0,0006.45,0002.85,0001.63
2024-03-24 02:21:00,SystemResetWarning,0814.9,5.00,000.00,025.5,024.5,000.0,034.1,027.3,12.4,0000.0,0007.81,0002.75,0001.62
2024-03-24 02:22:00,SystemResetWarning,0814.9,5.00,000.00,025.5,024.6,000.0,034.1,027.3,12.4,0000.0,0007.90,0002.77,0001.61
2024-03-24 02:23:00,SystemResetWarning,0814.9,5.00,000.00,025.5,024.6,000.0,034.1,027.3,12.6,0000.0,0007.80,0002.70,0001.59
2024-03-24 02:24:00,SystemResetWarning,0814.9,5.00,000.00,025.5,024.6,000.0,034.1,027.3,12.7,0000.0,0007.81,0002.69,0001.57
2024-03-24 02:25:00,SystemResetWarning,0815.0,5.00,000.00,025.5,024.5,000.0,034.1,027.3,12.6,0000.0,0007.68,0002.63,0001.57
2024-03-24 02:26:00,SystemResetWarning,0814.9,5.00,000.00,025.5,024.6,000.0,034.1,027.3,12.5,0000.0,0007.41,0002.64,0001.58
2024-03-24 02:27:00,SystemResetWarning,0814.9,5.00,000.00,025.4,024.5,000.0,034.1,027.3,12.5,0000.0,0007.49,0002.61,0001.56
2024-03-24 02:28:00,SystemResetWarning,0814.9,5.00,000.00,025.4,024.5,000.0,034.1,027.3,12.6,0000.0,0007.60,0002.58,0001.56
2024-03-24 02:29:00,SystemResetWarning,0815.0,5.00,000.00,025.4,024.5,000.0,034.1,027.3,12.7,0000.0,0007.61,0002.58,0001.56
2024-03-24 02:30:00,SystemResetWarning,0815.0,5.01,000.00,025.4,024.5,000.0,034.1,027.3,12.8,0000.0,0007.61,0002.55,0001.56
2024-03-24 02:31:00,SystemResetWarning,0814.9,4.99,000.00,025.4,024.5,000.0,034.1,027.3,13.1,0000.0,0008.22,0002.57,0001.59
2024-03-24 02:32:00,SystemResetWarning,0814.9,5.00,000.00,025.4,024.5,000.0,034.1,027.3,13.0,0000.0,0007.10,0002.59,0001.62
2024-03-24 02:33:00,SystemResetWarning,0814.9,5.00,000.00,025.4,024.5,000.0,034.0,027.3,13.0,0000.0,0007.09,0002.65,0001.63
2024-03-24 02:34:00,SystemResetWarning,0814.9,4.99,000.00,025.4,024.5,000.0,034.0,027.3,12.9,0000.0,0007.15,0002.68,0001.66
2024-03-24 02:35:00,SystemResetWarning,0814.9,5.00,000.00,025.4,024.5,000.0,034.0,027.3,13.0,0000.0,0007.53,0002.69,0001.67
2024-03-24 02:36:00,SystemResetWarning,0814.9,5.00,000.00,025.4,024.5,000.0,034.0,027.3,13.0,0000.0,0007.65,0002.74,0001.70
2024-03-24 02:37:00,SystemResetWarning,0814.9,5.00,000.00,025.4,024.5,000.0,034.0,027.2,13.1,0000.0,0007.91,0002.80,0001.74
2024-03-24 02:38:00,SystemResetWarning,0814.9,5.00,000.00,025.4,024.5,000.0,034.0,027.2,13.4,0000.0,0008.47,0002.95,0001.83
2024-03-24 02:39:00,SystemResetWarning,0814.9,5.00,000.00,025.4,024.5,000.0,034.0,027.2,13.6,0000.0,0008.59,0003.12,0001.99
2024-03-24 02:40:00,SystemResetWarning,0814.9,5.00,000.00,025.4,024.5,000.0,034.0,027.2,14.0,0000.0,0008.94,0003.28,0002.23
2024-03-24 02:41:00,SystemResetWarning,0814.9,5.00,000.00,025.4,024.5,000.0,034.0,027.2,13.9,0000.0,0009.61,0003.51,0002.48
2024-03-24 02:42:00,SystemResetWarning,0815.0,5.00,000.00,025.4,024.5,000.0,034.0,027.2,13.6,0000.0,0009.42,0003.61,0002.59
2024-03-24 02:43:00,SystemResetWarning,0815.0,5.00,000.00,025.4,024.5,000.0,034.0,027.2,13.5,0000.0,0009.38,0003.72,0002.63
2024-03-24 02:44:00,SystemResetWarning,0815.1,4.99,000.00,025.4,024.5,000.0,034.0,027.2,13.6,0000.0,0010.32,0003.79,0002.71
2024-03-24 02:45:00,SystemResetWarning,0815.0,4.99,000.00,025.4,024.5,000.0,034.0,027.2,13.7,0000.0,0011.42,0003.88,0002.81
2024-03-24 02:46:00,SystemResetWarning,0815.0,5.01,000.00,025.4,024.5,000.0,034.0,027.2,13.7,0000.0,0011.13,0003.92,0002.93
2024-03-24 02:47:00,SystemResetWarning,0815.0,5.00,000.00,025.4,024.5,000.0,034.0,027.2,14.3,0000.0,0011.20,0003.98,0003.07
2024-03-24 02:48:00,SystemResetWarning,0815.0,5.00,000.00,025.4,024.5,000.0,034.0,027.2,15.0,0000.0,0011.70,0004.21,0003.27
2024-03-24 02:49:00,SystemResetWarning,0815.0,5.00,000.00,025.4,024.5,000.0,034.0,027.2,14.4,0000.0,0011.63,0004.29,0003.34
2024-03-24 02:50:00,SystemResetWarning,0815.1,5.00,000.00,025.4,024.5,000.0,034.0,027.2,15.2,0000.0,0012.22,0004.41,0003.44
2024-03-24 02:51:00,SystemResetWarning,0815.1,5.00,000.00,025.3,024.5,000.0,034.0,027.2,15.3,0000.0,0012.54,0004.49,0003.53
2024-03-24 02:52:00,SystemResetWarning,0815.1,4.99,000.00,025.3,024.5,000.0,034.0,027.2,15.4,0000.0,0013.17,0004.60,0003.63
2024-03-24 02:53:00,SystemResetWarning,0815.1,5.00,000.00,025.3,024.5,000.0,034.0,027.2,15.5,0000.0,0013.79,0004.80,0003.78
2024-03-24 02:54:00,SystemResetWarning,0815.1,5.00,000.00,025.3,024.5,000.0,034.0,027.2,15.3,0000.0,0015.16,0005.00,0003.95
2024-03-24 02:55:00,SystemResetWarning,0815.0,5.01,000.00,025.3,024.4,000.0,034.0,027.2,15.3,0000.0,0015.43,0005.21,0004.14
2024-03-24 02:56:00,SystemResetWarning,0815.0,5.00,000.00,025.3,024.4,000.0,034.0,027.2,15.4,0000.0,0015.18,0005.44,0004.31
2024-03-24 02:57:00,SystemResetWarning,0815.1,5.00,000.00,025.3,024.4,000.0,034.0,027.2,15.4,0000.0,0016.92,0005.68,0004.48
2024-03-24 02:58:00,SystemResetWarning,0815.1,5.00,000.00,025.3,024.4,000.0,034.0,027.2,15.4,0000.0,0017.45,0005.87,0004.63
2024-03-24 02:59:00,SystemResetWarning,0815.1,4.99,000.00,025.3,024.4,000.0,034.0,027.2,15.4,0000.0,0017.28,0005.95,0004.68
